Change the Weather History Date:

Thursday, January 3, 2013

  Actual Average Record
Temperature  
Mean Temperature 4 °F -  
Max Temperature 23 °F 40 °F 51 °F (2003)
Min Temperature -14 °F 9 °F -14 °F (2013)
Degree Days  
Heating Degree Days 60    
Moisture  
Dew Point -7 °F    
Average Humidity 67    
Maximum Humidity 100    
Minimum Humidity 39    
Precipitation  
Precipitation 0.00 in - - ()
Sea Level Pressure  
Sea Level Pressure 30.26 in    
Wind  
Wind Speed 6 mph (North)    
Max Wind Speed 12 mph    
Max Gust Speed -    
Visibility 10 miles    
Events      
Averages and records for this station are not official NWS values.
T = Trace of Precipitation, MM = Missing Value Source: NWS Daily Summary

Daily Weather History Graph

Daily Weather History Graph

Search for Another Location

Airport or City:

Trip Planner

Search our weather history database for the weather conditions in past years. The results will help you decide how hot, cold, wet, or windy it might be!

Date:

Astronomy

Jan. 03, 2013 Rise Set
Actual Time 7:14 AM MST 5:00 PM MST
Civil Twilight 6:46 AM MST 5:28 PM MST
Nautical Twilight 6:14 AM MST 6:00 PM MST
Astronomical Twilight 5:42 AM MST 6:32 PM MST
Moon 11:26 PM MST (1/3) 10:38 AM MST (1/3)
Length of Visible Light 10h 42m
Length of Day
9h 45m
Waning Gibbous, 65% of the Moon is Illuminated
Jan 3
Waning Gibbous
Jan 4
Last Quarter
Jan 11
New
Jan 18
First Quarter
Jan 26
Full

Hourly Weather History & Observations

Time (MST) Temp. Windchill Dew Point Humidity Pressure Visibility Wind Dir Wind Speed Gust Speed Precip Events Conditions
12:15 AM -5.8 °F - -14.8 °F 65% 30.21 in 10.0 mi Calm Calm - N/A   Clear
12:35 AM -5.8 °F -18.4 °F -5.8 °F 100% 30.22 in 10.0 mi North 5.8 mph - N/A   Clear
12:55 AM -5.8 °F -19.9 °F -11.2 °F 77% 30.21 in 10.0 mi North 6.9 mph - N/A   Clear
1:15 AM -5.8 °F -19.9 °F -14.8 °F 65% 30.22 in 10.0 mi North 6.9 mph - N/A   Clear
1:35 AM -5.8 °F -18.4 °F -9.4 °F 84% 30.23 in 10.0 mi North 5.8 mph - N/A   Clear
1:55 AM -5.8 °F -18.4 °F -13.0 °F 71% 30.23 in 10.0 mi North 5.8 mph - N/A   Clear
2:15 AM -7.6 °F -26.6 °F -13.0 °F 77% 30.24 in 10.0 mi North 11.5 mph - N/A   Clear
2:35 AM -7.6 °F -22.1 °F -11.2 °F 84% 30.24 in 10.0 mi North 6.9 mph - N/A   Clear
2:55 AM -9.4 °F -25.6 °F -16.6 °F 71% 30.24 in 10.0 mi North 8.1 mph - N/A   Clear
3:15 AM -9.4 °F -24.3 °F -14.8 °F 77% 30.25 in 10.0 mi NNE 6.9 mph - N/A   Clear
3:35 AM -7.6 °F -18.8 °F -11.2 °F 84% 30.26 in 10.0 mi NNE 4.6 mph - N/A   Clear
3:55 AM -9.4 °F -25.6 °F -23.8 °F 49% 30.26 in 10.0 mi NNE 8.1 mph - N/A   Clear
4:15 AM -9.4 °F -20.9 °F -9.4 °F 100% 30.26 in 10.0 mi ENE 4.6 mph - N/A   Clear
4:35 AM -14.8 °F -27.2 °F -27.4 °F 53% 30.26 in 10.0 mi North 4.6 mph - N/A   Clear
4:55 AM -7.6 °F -18.8 °F - N/A% 30.25 in 10.0 mi North 4.6 mph - N/A   Clear
5:15 AM -11.2 °F -24.8 °F -25.6 °F 49% 30.26 in 10.0 mi North 5.8 mph - N/A   Clear
5:35 AM -11.2 °F -26.4 °F -14.8 °F 84% 30.26 in 10.0 mi North 6.9 mph - N/A   Clear
5:55 AM -13.0 °F -31.3 °F -23.8 °F 59% 30.26 in 10.0 mi North 9.2 mph - N/A   Clear
6:35 AM -7.6 °F -18.8 °F -14.8 °F 71% 30.27 in 10.0 mi North 4.6 mph - N/A   Clear
6:55 AM -11.2 °F -24.8 °F -14.8 °F 84% 30.28 in 10.0 mi North 5.8 mph - N/A   Clear
7:15 AM -11.2 °F -24.8 °F -16.6 °F 77% 30.29 in 10.0 mi ENE 5.8 mph - N/A   Clear
7:35 AM -11.2 °F -24.8 °F -11.2 °F 100% 30.28 in 10.0 mi East 5.8 mph - N/A   Clear
7:55 AM -9.4 °F -18.6 °F -16.6 °F 71% 30.29 in 10.0 mi North 3.5 mph - N/A   Clear
8:15 AM -5.8 °F -16.7 °F -5.8 °F 100% 30.30 in 10.0 mi NNE 4.6 mph - N/A   Unknown
8:35 AM -0.4 °F -12.0 °F -5.8 °F 78% 30.30 in 10.0 mi NNE 5.8 mph - N/A   Clear
8:55 AM 3.2 °F - 1.4 °F 92% 30.31 in 10.0 mi Calm Calm - N/A   Clear
9:15 AM 3.2 °F -7.8 °F -4.0 °F 72% 30.31 in 10.0 mi NNW 5.8 mph - N/A   Clear
9:35 AM 6.8 °F -0.1 °F -0.4 °F 72% 30.32 in 10.0 mi North 3.5 mph - N/A   Clear
9:55 AM 8.6 °F - 1.4 °F 73% 30.32 in 10.0 mi Calm Calm - N/A   Clear
10:15 AM 10.4 °F 4.0 °F 1.4 °F 67% 30.32 in 10.0 mi NNW 3.5 mph - N/A   Clear
10:35 AM 12.2 °F 4.3 °F 1.4 °F 62% 30.32 in 10.0 mi NNW 4.6 mph - N/A   Clear
10:55 AM 14.0 °F 6.5 °F 1.4 °F 57% 30.31 in 10.0 mi North 4.6 mph - N/A   Clear
11:15 AM 15.8 °F 5.1 °F 3.2 °F 58% 30.31 in 10.0 mi North 8.1 mph - N/A   Clear
11:35 AM 17.6 °F 7.3 °F 3.2 °F 53% 30.29 in 10.0 mi North 8.1 mph - N/A   Clear
11:55 AM 19.4 °F 10.4 °F 3.2 °F 49% 30.28 in 10.0 mi North 6.9 mph - N/A   Clear
12:15 PM 19.4 °F 10.4 °F 3.2 °F 49% 30.27 in 10.0 mi NNW 6.9 mph - N/A   Clear
12:35 PM 19.4 °F 9.5 °F 5.0 °F 54% 30.27 in 10.0 mi NNW 8.1 mph - N/A   Clear
12:55 PM 21.2 °F 10.9 °F 5.0 °F 50% 30.26 in 10.0 mi NNW 9.2 mph - N/A   Clear
1:15 PM 21.2 °F 11.7 °F 5.0 °F 50% 30.26 in 10.0 mi NNW 8.1 mph - N/A   Clear
1:35 PM 23.0 °F 13.1 °F 3.2 °F 43% 30.25 in 10.0 mi NNW 9.2 mph - N/A   Clear
1:55 PM 23.0 °F 13.1 °F 5.0 °F 46% 30.25 in 10.0 mi NW 9.2 mph - N/A   Clear
2:15 PM 23.0 °F 13.9 °F 3.2 °F 43% 30.24 in 10.0 mi NNW 8.1 mph - N/A   Clear
2:35 PM 23.0 °F 13.9 °F 3.2 °F 43% 30.24 in 10.0 mi North 8.1 mph - N/A   Clear
2:55 PM 23.0 °F 14.7 °F 3.2 °F 43% 30.24 in 10.0 mi North 6.9 mph - N/A   Clear
3:15 PM 23.0 °F 15.8 °F 3.2 °F 43% 30.24 in 10.0 mi North 5.8 mph - N/A   Clear
3:35 PM 23.0 °F 13.9 °F 1.4 °F 39% 30.23 in 10.0 mi North 8.1 mph - N/A   Clear
3:55 PM 21.2 °F 11.7 °F 1.4 °F 42% 30.23 in 10.0 mi NNW 8.1 mph - N/A   Clear
4:15 PM 19.4 °F 10.4 °F 1.4 °F 46% 30.23 in 10.0 mi North 6.9 mph - N/A   Clear
4:35 PM 19.4 °F 12.8 °F -0.4 °F 42% 30.23 in 10.0 mi North 4.6 mph - N/A   Clear
4:55 PM 15.8 °F 6.1 °F -0.4 °F 49% 30.23 in 10.0 mi North 6.9 mph - N/A   Clear
5:15 PM 10.4 °F 0.8 °F -5.8 °F 48% 30.23 in 10.0 mi North 5.8 mph - N/A   Clear
5:35 PM 6.8 °F -2.0 °F -7.6 °F 52% 30.24 in 10.0 mi North 4.6 mph - N/A   Clear
5:55 PM 6.8 °F -5.9 °F -4.0 °F 61% 30.24 in 10.0 mi North 8.1 mph - N/A   Clear
6:15 PM 1.4 °F -12.5 °F -14.8 °F 47% 30.25 in 10.0 mi North 8.1 mph - N/A   Clear
6:35 PM -0.4 °F -13.4 °F -7.6 °F 72% 30.25 in 10.0 mi North 6.9 mph - N/A   Clear
6:55 PM -0.4 °F -13.4 °F -5.8 °F 78% 30.25 in 10.0 mi East 6.9 mph - N/A   Clear
7:15 PM -0.4 °F -13.4 °F -9.4 °F 66% 30.26 in 10.0 mi North 6.9 mph - N/A   Clear
7:35 PM -0.4 °F -13.4 °F -7.6 °F 72% 30.26 in 10.0 mi North 6.9 mph - N/A   Clear
7:55 PM -5.8 °F -19.9 °F -13.0 °F 71% 30.26 in 10.0 mi North 6.9 mph - N/A   Clear
8:15 PM -4.0 °F -17.8 °F -9.4 °F 78% 30.26 in 10.0 mi North 6.9 mph - N/A   Clear
8:35 PM -5.8 °F -19.9 °F -11.2 °F 77% 30.26 in 10.0 mi North 6.9 mph - N/A   Clear
8:55 PM -5.8 °F -18.4 °F -9.4 °F 84% 30.26 in 10.0 mi North 5.8 mph - N/A   Clear
9:15 PM -4.0 °F -17.8 °F -9.4 °F 78% 30.26 in 10.0 mi North 6.9 mph - N/A   Clear
9:35 PM -5.8 °F -19.9 °F -11.2 °F 77% 30.26 in 10.0 mi North 6.9 mph - N/A   Clear
9:55 PM -5.8 °F -18.4 °F -11.2 °F 77% 30.27 in 10.0 mi North 5.8 mph - N/A   Clear
10:15 PM -5.8 °F -18.4 °F -9.4 °F 84% 30.27 in 10.0 mi North 5.8 mph - N/A   Clear
10:35 PM -7.6 °F -22.1 °F -16.6 °F 65% 30.27 in 10.0 mi North 6.9 mph - N/A   Clear
10:55 PM -7.6 °F -16.5 °F -9.4 °F 92% 30.28 in 10.0 mi NNE 3.5 mph - N/A   Clear
11:15 PM -7.6 °F -18.8 °F -13.0 °F 77% 30.27 in 10.0 mi NNE 4.6 mph - N/A   Clear
11:35 PM -5.8 °F -16.7 °F -9.4 °F 84% 30.27 in 10.0 mi North 4.6 mph - N/A   Clear
11:55 PM -9.4 °F -22.7 °F -20.2 °F 59% 30.26 in 10.0 mi North 5.8 mph - N/A   Clear